DW4248 Weather Reports


Display with metric or nautical units.
time (UTC)temp
F
wind
direction
speed
MPH
gust
MPH
rain 1hr
in
rain 24hr
in
rain mn
in
humidity
%
barometer
mb
20260901023603 88 141 1.0 4.0 0.00 0.00 0.00 60 1015.4
20260901022703 88 138 1.0 4.0 0.00 0.00 0.00 59 1015.3
20260901021803 88 137 1.0 2.0 0.00 0.00 0.00 59 1015.2
20260901020903 88 138 0.0 2.0 0.00 0.00 0.00 58 1015.2
20260901020003 89 138 0.0 2.0 0.00 0.00 0.00 57 1015.1
20260901015403 89 140 0.0 2.0 0.00 0.00 0.00 56 1015.0
20260901014503 89 128 0.0 2.0 0.00 0.00 0.00 55 1014.9
20260901013603 90 130 0.0 1.0 0.00 0.00 0.00 54 1014.9
20260901012703 90 138 0.0 1.0 0.00 0.00 0.00 53 1014.8
20260901011803 90 0 0.0 1.0 0.00 0.00 0.00 53 1014.7
20260901010903 91 135 0.0 1.0 0.00 0.00 0.00 53 1014.6
20260901010004 91 135 0.0 1.0 0.00 0.00 0.00 52 1014.6
20260901005403 91 0 0.0 0.0 0.00 0.00 0.00 51 1014.5
20260901004503 92 0 0.0 0.0 0.00 0.00 0.00 50 1014.4
20260901003603 93 0 0.0 0.0 0.00 0.00 0.00 48 1014.4
20260901002703 93 147 0.0 1.0 0.00 0.00 0.00 48 1014.4
20260901001803 94 145 0.0 1.0 0.00 0.00 0.00 47 1014.4
20260901000903 94 144 0.0 1.0 0.00 0.00 0.00 45 1014.4
20260901000003 95 130 0.0 1.0 0.00 0.00 0.00 44 1014.4
20260831235403 95 164 0.0 1.0 0.00 0.00 0.00 43 1014.4
20260831234503 96 139 0.0 2.0 0.00 0.00 0.00 42 1014.4
20260831233603 96 233 0.0 3.0 0.00 0.00 0.00 42 1014.5
20260831232703 96 230 0.0 1.0 0.00 0.00 0.00 41 1014.5
20260831231803 97 166 1.0 3.0 0.00 0.00 0.00 39 1014.5
20260831230903 97 151 1.0 3.0 0.00 0.00 0.00 40 1014.5
20260831230003 97 305 1.0 4.0 0.00 0.00 0.00 41 1014.5
20260831225403 97 330 2.0 4.0 0.00 0.00 0.00 39 1014.5
20260831224503 97 332 1.0 5.0 0.00 0.00 0.00 40 1014.4
20260831223603 98 292 0.0 3.0 0.00 0.00 0.00 38 1014.4
20260831222703 98 165 1.0 5.0 0.00 0.00 0.00 39 1014.4
20260831221803 98 156 2.0 6.0 0.00 0.00 0.00 38 1014.4
20260831220903 98 220 1.0 6.0 0.00 0.00 0.00 38 1014.4
20260831220003 98 198 1.0 6.0 0.00 0.00 0.00 38 1014.5
20260831215403 98 329 2.0 6.0 0.00 0.00 0.00 40 1014.5
20260831214503 99 240 1.0 4.0 0.00 0.00 0.00 41 1014.5
20260831213603 98 133 1.0 4.0 0.00 0.00 0.00 40 1014.5
20260831212703 98 162 1.0 3.0 0.00 0.00 0.00 43 1014.4
20260831211803 98 214 1.0 4.0 0.00 0.00 0.00 42 1014.5
20260831210904 99 160 1.0 3.0 0.00 0.00 0.00 44 1014.6
20260831210003 99 184 1.0 4.0 0.00 0.00 0.00 44 1014.6
20260831205403 99 189 1.0 4.0 0.00 0.00 0.00 43 1014.6
20260831204503 99 263 1.0 5.0 0.00 0.00 0.00 42 1014.7
20260831203603 99 92 1.0 6.0 0.00 0.00 0.00 43 1014.7
20260831202703 99 145 2.0 6.0 0.00 0.00 0.00 44 1014.7
20260831201803 99 146 2.0 6.0 0.00 0.00 0.00 44 1014.7
20260831200903 99 144 2.0 5.0 0.00 0.00 0.00 45 1014.9
20260831200003 98 332 2.0 8.0 0.00 0.00 0.00 47 1015.1
20260831195403 98 341 2.0 11.0 0.00 0.00 0.00 44 1015.1
20260831194503 99 147 1.0 4.0 0.00 0.00 0.00 46 1015.1
20260831193603 98 138 1.0 7.0 0.00 0.00 0.00 45 1015.2
20260831192703 98 140 1.0 5.0 0.00 0.00 0.00 46 1015.3
20260831191803 98 137 2.0 4.0 0.00 0.00 0.00 44 1015.4
20260831190903 98 148 1.0 4.0 0.00 0.00 0.00 45 1015.5
20260831190003 97 157 2.0 6.0 0.00 0.00 0.00 44 1015.6
20260831185403 96 319 2.0 7.0 0.00 0.00 0.00 47 1015.6
20260831184503 96 325 2.0 5.0 0.00 0.00 0.00 45 1015.8
20260831183603 96 111 2.0 7.0 0.00 0.00 0.00 46 1015.8
20260831182703 95 339 2.0 6.0 0.00 0.00 0.00 48 1015.9
20260831181803 96 208 2.0 4.0 0.00 0.00 0.00 47 1016.0
20260831180903 95 173 1.0 4.0 0.00 0.00 0.00 48 1016.2
20260831180003 94 347 1.0 5.0 0.00 0.00 0.00 52 1016.3
20260831175403 94 299 2.0 5.0 0.00 0.00 0.00 49 1016.4
20260831174503 93 342 1.0 4.0 0.00 0.00 0.00 50 1016.5
20260831173603 93 144 2.0 7.0 0.00 0.00 0.00 50 1016.6
20260831172703 92 3 1.0 5.0 0.00 0.00 0.00 53 1016.7
20260831171803 91 336 2.0 8.0 0.00 0.00 0.00 52 1016.8
20260831170924 91 197 2.0 6.0 0.00 0.00 0.00 52 1016.9
20260831170024 91 265 2.0 8.0 0.00 0.00 0.00 52 1017.1
20260831165424 90 316 2.0 5.0 0.00 0.00 0.00 52 1017.1
20260831164524 90 340 2.0 8.0 0.00 0.00 0.00 53 1017.1
20260831163624 90 273 1.0 4.0 0.00 0.00 0.00 51 1017.2
20260831162724 90 147 1.0 4.0 0.00 0.00 0.00 51 1017.3
20260831161824 90 145 2.0 6.0 0.00 0.00 0.00 52 1017.3
20260831160926 89 129 1.0 5.0 0.00 0.00 0.00 52 1017.2
20260831160024 89 145 2.0 6.0 0.00 0.00 0.00 55 1017.2
20260831155424 88 143 2.0 10.0 0.00 0.00 0.00 54 1017.2
20260831154505 88 155 2.0 5.0 0.00 0.00 0.00 55 1017.3
20260831153603 87 130 2.0 7.0 0.00 0.00 0.00 55 1017.3
20260831152703 86 149 2.0 7.0 0.00 0.00 0.00 55 1017.3
20260831151803 86 197 1.0 5.0 0.00 0.00 0.00 58 1017.3
20260831150903 85 153 2.0 5.0 0.00 0.00 0.00 56 1017.2
20260831150003 85 213 2.0 5.0 0.00 0.00 0.00 56 1017.2
20260831145403 84 207 2.0 5.0 0.00 0.00 0.00 57 1017.1
20260831144503 84 184 1.0 5.0 0.00 0.00 0.00 57 1017.1
20260831143603 83 174 1.0 7.0 0.00 0.00 0.00 58 1017.0
20260831142704 83 163 2.0 7.0 0.00 0.00 0.00 58 1016.9
20260831141803 82 148 1.0 7.0 0.00 0.00 0.00 60 1016.9
20260831140903 81 140 2.0 6.0 0.00 0.00 0.00 61 1017.0
20260831140003 80 140 0.0 3.0 0.00 0.00 0.00 64 1016.9
20260831135403 80 136 1.0 3.0 0.00 0.00 0.00 64 1016.9
20260831134503 79 138 1.0 3.0 0.00 0.00 0.00 65 1016.8
20260831133603 78 137 1.0 3.0 0.00 0.00 0.00 67 1016.8
20260831132703 77 134 0.0 3.0 0.00 0.00 0.00 67 1016.8
20260831131803 77 138 0.0 2.0 0.00 0.00 0.00 68 1016.9
20260831130903 76 148 0.0 1.0 0.00 0.00 0.00 69 1016.8
20260831130003 76 135 0.0 1.0 0.00 0.00 0.00 69 1016.7
20260831125403 76 0 0.0 1.0 0.00 0.00 0.00 70 1016.7
20260831124503 75 0 0.0 0.0 0.00 0.00 0.00 70 1016.6
20260831123603 75 132 0.0 1.0 0.00 0.00 0.00 70 1016.5
20260831122703 75 0 0.0 0.0 0.00 0.00 0.00 70 1016.4
20260831121803 74 134 0.0 1.0 0.00 0.00 0.00 70 1016.4
20260831120903 74 0 0.0 0.0 0.00 0.00 0.00 71 1016.2
20260831120003 74 0 0.0 0.0 0.00 0.00 0.00 71 1016.1
20260831115403 74 0 0.0 0.0 0.00 0.00 0.00 70 1016.0
20260831114503 74 0 0.0 0.0 0.00 0.00 0.00 70 1016.0
20260831113603 74 0 0.0 0.0 0.00 0.00 0.00 69 1016.0
20260831112703 75 0 0.0 0.0 0.00 0.00 0.00 68 1016.0
20260831111803 75 132 0.0 1.0 0.00 0.00 0.00 68 1015.9
20260831110903 76 0 0.0 1.0 0.00 0.00 0.00 66 1015.8
20260831110003 76 134 0.0 1.0 0.00 0.00 0.00 65 1015.8
20260831105403 76 134 0.0 1.0 0.00 0.00 0.00 65 1015.9
20260831104503 76 134 0.0 1.0 0.00 0.00 0.00 66 1015.8
20260831103603 76 126 0.0 1.0 0.00 0.00 0.00 66 1015.8
20260831102703 76 0 0.0 0.0 0.00 0.00 0.00 66 1015.9
20260831101803 76 125 0.0 1.0 0.00 0.00 0.00 66 1015.8
20260831100903 76 0 0.0 0.0 0.00 0.00 0.00 66 1015.8
20260831100025 76 125 0.0 1.0 0.00 0.00 0.00 66 1015.7
20260831095424 76 0 0.0 0.0 0.00 0.00 0.00 66 1015.7
20260831094524 76 126 0.0 1.0 0.00 0.00 0.00 65 1015.7
20260831093624 76 125 0.0 1.0 0.00 0.00 0.00 64 1015.7
20260831092724 76 126 0.0 1.0 0.00 0.00 0.00 64 1015.8
20260831091803 77 126 0.0 1.0 0.00 0.00 0.00 63 1015.7
20260831090903 77 127 0.0 1.0 0.00 0.00 0.00 63 1015.7
20260831090003 77 118 0.0 1.0 0.00 0.00 0.00 63 1015.5
20260831085403 77 124 0.0 1.0 0.00 0.00 0.00 63 1015.5
20260831084503 77 133 0.0 1.0 0.00 0.00 0.00 62 1015.5
20260831083603 77 124 0.0 1.0 0.00 0.00 0.00 63 1015.4
20260831082703 77 169 0.0 1.0 0.00 0.00 0.00 62 1015.4
20260831081803 77 184 0.0 1.0 0.00 0.00 0.00 63 1015.2
20260831080903 77 151 0.0 1.0 0.00 0.00 0.00 63 1015.2
20260831080003 77 135 0.0 1.0 0.00 0.00 0.00 63 1015.1
20260831075424 77 128 0.0 1.0 0.00 0.00 0.00 63 1015.1
20260831074524 77 133 0.0 1.0 0.00 0.00 0.00 64 1015.1
20260831073624 77 137 0.0 1.0 0.00 0.00 0.00 64 1015.2
20260831072724 77 0 0.0 0.0 0.00 0.00 0.00 64 1015.2
20260831071824 77 0 0.0 0.0 0.00 0.00 0.00 64 1015.3
20260831070903 78 0 0.0 0.0 0.00 0.00 0.00 63 1015.3
20260831070003 78 137 0.0 1.0 0.00 0.00 0.00 63 1015.3
20260831065403 78 136 0.0 1.0 0.00 0.00 0.00 62 1015.4
20260831064503 78 136 0.0 1.0 0.00 0.00 0.00 63 1015.5
20260831063603 78 0 0.0 0.0 0.00 0.00 0.00 64 1015.5
20260831062703 78 136 0.0 1.0 0.00 0.00 0.00 64 1015.5
20260831061803 78 133 0.0 1.0 0.00 0.00 0.00 64 1015.6
20260831060903 79 134 0.0 1.0 0.00 0.00 0.00 63 1015.6
20260831060003 79 127 0.0 1.0 0.00 0.00 0.00 63 1015.6
20260831055403 79 136 0.0 2.0 0.00 0.00 0.00 63 1015.6
20260831054503 79 134 0.0 2.0 0.00 0.00 0.00 63 1015.6
20260831053603 79 130 0.0 2.0 0.00 0.00 0.00 62 1015.6
20260831052703 80 131 0.0 3.0 0.00 0.00 0.00 62 1015.4
20260831051803 80 131 0.0 2.0 0.00 0.00 0.00 62 1015.4
20260831050903 80 131 0.0 2.0 0.00 0.00 0.00 63 1015.4
20260831050005 80 133 0.0 1.0 0.00 0.00 0.00 63 1015.5
20260831045403 80 129 0.0 1.0 0.00 0.00 0.00 63 1015.5
20260831044503 80 138 0.0 1.0 0.00 0.00 0.00 62 1015.4
20260831043603 81 129 0.0 1.0 0.00 0.00 0.00 62 1015.4
20260831042703 81 135 0.0 1.0 0.00 0.00 0.00 62 1015.4
20260831041803 82 133 1.0 5.0 0.00 0.00 0.00 60 1015.4
20260831040903 82 137 1.0 4.0 0.00 0.00 0.00 61 1015.4
20260831040003 82 137 0.0 3.0 0.00 0.00 0.00 60 1015.4
20260831035403 82 136 1.0 3.0 0.00 0.00 0.00 60 1015.3
20260831034503 82 134 0.0 4.0 0.00 0.00 0.00 60 1015.3
20260831033603 82 138 0.0 3.0 0.00 0.00 0.00 60 1015.2
20260831032703 82 135 1.0 3.0 0.00 0.00 0.00 60 1015.1
20260831031803 83 132 1.0 4.0 0.00 0.00 0.00 59 1015.1
20260831030903 83 132 1.0 5.0 0.00 0.00 0.00 59 1015.1
20260831030003 83 141 1.0 5.0 0.00 0.00 0.00 59 1015.1
20260831025403 83 134 1.0 3.0 0.00 0.00 0.00 59 1015.1
20260831024503 83 134 1.0 6.0 0.00 0.00 0.00 59 1015.0